KB1JDX Weather Reports


Display with metric or nautical units.
time (UTC)temp
F
wind
direction
speed
MPH
gust
MPH
rain 1hr
in
rain 24hr
in
rain mn
in
humidity
%
barometer
mb
20260508182038 58 259 0.0 11.0 0.00 0.00 0.00 47 1009.4
20260508181928 58 279 0.0 11.0 0.00 0.00 0.00 44 1009.4
20260508180036 59 314 4.0 14.0 0.00 0.00 0.00 40 1008.8
20260508174036 61 298 0.0 14.0 0.00 0.00 0.00 39 1008.9
20260508172038 61 5 0.0 14.0 0.00 0.00 0.00 41 1009.0
20260508171928 61 5 0.0 14.0 0.00 0.00 0.00 40 1009.1
20260508164038 61 300 0.0 13.0 0.00 0.00 0.00 39 1009.4
20260508162038 61 254 0.0 13.0 0.00 0.00 0.00 42 1009.7
20260508161928 61 254 0.0 13.0 0.00 0.00 0.00 42 1009.7
20260508160038 61 238 0.0 12.0 0.00 0.00 0.00 43 1009.8
20260508154038 61 229 0.0 12.0 0.00 0.00 0.00 42 1009.9
20260508152037 60 299 4.0 12.0 0.00 0.00 0.00 43 1010.0
20260508151928 60 213 0.0 12.0 0.00 0.00 0.00 42 1010.1
20260508150036 59 303 0.0 8.0 0.00 0.00 0.00 42 1010.1
20260508144036 59 197 1.0 8.0 0.00 0.00 0.00 42 1010.2
20260508142036 58 310 1.0 8.0 0.00 0.00 0.00 45 1010.2
20260508141928 58 309 5.0 8.0 0.00 0.00 0.00 46 1010.3
20260508140038 56 302 0.0 7.0 0.00 0.00 0.00 47 1010.5
20260508134038 56 289 0.0 7.0 0.00 0.00 0.00 48 1010.8
20260508132036 56 325 0.0 7.0 0.00 0.00 0.00 47 1010.7
20260508131928 55 326 0.0 7.0 0.00 0.00 0.00 48 1010.8
20260508130036 54 25 0.0 0.0 0.00 0.00 0.00 51 1010.8
20260508124036 52 304 0.0 0.0 0.00 0.00 0.00 54 1010.8
20260508122038 49 323 0.0 0.0 0.00 0.00 0.00 58 1010.8
20260508121928 49 323 0.0 0.0 0.00 0.00 0.00 58 1010.8
20260508120036 45 311 0.0 0.0 0.00 0.00 0.00 67 1010.8
20260508114036 44 311 0.0 0.0 0.00 0.00 0.00 56 1010.9
20260508112036 42 311 0.0 0.0 0.00 0.00 0.00 43 1010.8
20260508111928 42 311 0.0 0.0 0.00 0.00 0.00 43 1010.8
20260508110038 40 311 0.0 0.0 0.00 0.00 0.00 37 1010.6
20260508104036 39 311 0.0 0.0 0.00 0.00 0.00 36 1010.5
20260508102036 38 311 0.0 0.0 0.00 0.02 0.00 32 1010.4
20260508101928 38 311 0.0 0.0 0.00 0.02 0.00 32 1010.4
20260508100036 38 311 0.0 0.0 0.00 0.06 0.00 33 1010.0
20260508094036 38 311 0.0 0.0 0.00 0.06 0.00 35 1009.9
20260508092036 38 311 0.0 0.0 0.00 0.07 0.00 36 1009.9
20260508091928 38 311 0.0 0.0 0.00 0.07 0.00 36 1009.9
20260508090036 39 311 0.0 0.0 0.00 0.08 0.00 32 1009.9
20260508084036 38 311 0.0 0.0 0.00 0.08 0.00 33 1009.6
20260508082037 37 311 0.0 0.0 0.00 0.10 0.00 36 1009.6
20260508081928 37 311 0.0 0.0 0.00 0.10 0.00 36 1009.6
20260508080036 37 311 0.0 0.0 0.00 0.13 0.00 38 1009.6
20260508074036 37 311 0.0 0.0 0.00 0.13 0.00 41 1009.2
20260508072036 38 311 0.0 0.0 0.00 0.19 0.00 42 1008.8
20260508071928 38 311 0.0 0.0 0.00 0.19 0.00 43 1008.7
20260508064036 38 311 0.0 0.0 0.00 0.19 0.00 49 1008.3
20260508062036 38 311 0.0 0.0 0.00 0.19 0.00 55 1008.2
20260508061928 38 311 0.0 0.0 0.00 0.19 0.00 55 1008.2
20260508060036 39 311 0.0 0.0 0.00 0.19 0.00 59 1008.2
20260508054036 40 311 0.0 0.0 0.00 0.19 0.00 62 1008.2
20260508052036 40 311 0.0 0.0 0.00 0.19 0.00 61 1008.4
20260508051928 40 311 0.0 0.0 0.00 0.19 0.00 60 1008.4
20260508050036 41 311 0.0 0.0 0.00 0.19 0.00 62 1008.4
20260508044036 42 311 0.0 0.0 0.00 0.19 0.00 65 1008.8
20260508042037 42 311 0.0 0.0 0.00 0.19 0.00 68 1009.0
20260508041928 42 311 0.0 0.0 0.00 0.19 0.00 68 1009.0
20260508040037 43 311 0.0 0.0 0.00 0.19 0.19 68 1008.9
20260508034036 44 311 0.0 0.0 0.00 0.19 0.19 67 1008.9
20260508032036 46 311 0.0 0.0 0.00 0.19 0.19 65 1008.8
20260508031928 46 311 0.0 0.0 0.00 0.19 0.19 65 1008.8
20260508030036 46 311 0.0 0.0 0.00 0.19 0.19 62 1008.8
20260508024036 47 311 0.0 0.0 0.00 0.19 0.19 59 1008.8
20260508022036 48 311 0.0 0.0 0.00 0.19 0.19 56 1008.8
20260508021928 49 311 0.0 0.0 0.00 0.19 0.19 56 1008.7
20260508020036 49 311 0.0 0.0 0.00 0.19 0.19 56 1008.8
20260508014036 51 311 0.0 0.0 0.00 0.19 0.19 52 1009.0
20260508012036 52 311 0.0 0.0 0.00 0.19 0.19 52 1008.9
20260508011928 52 311 0.0 0.0 0.00 0.19 0.19 51 1008.8
20260508010036 53 311 0.0 6.0 0.00 0.19 0.19 49 1008.2
20260508004036 54 311 0.0 6.0 0.00 0.19 0.19 49 1008.0
20260508002036 55 311 0.0 6.0 0.00 0.19 0.19 47 1007.7
20260508001928 55 311 0.0 6.0 0.00 0.19 0.19 46 1007.7
20260508000038 56 311 0.0 10.0 0.00 0.19 0.19 44 1007.4
20260507234036 57 311 0.0 10.0 0.00 0.19 0.19 41 1007.2
20260507232036 58 293 0.0 10.0 0.00 0.19 0.19 42 1007.0
20260507231928 58 292 0.0 10.0 0.00 0.19 0.19 41 1006.9
20260507230036 58 18 0.0 11.0 0.00 0.19 0.19 39 1007.0
20260507222036 59 334 1.0 11.0 0.00 0.21 0.19 37 1006.7
20260507221927 59 341 4.0 11.0 0.00 0.21 0.19 37 1006.7
20260507220037 60 306 0.0 9.0 0.00 0.22 0.19 37 1006.7
20260507214037 60 298 4.0 9.0 0.00 0.22 0.19 36 1006.6
20260507212037 61 299 6.0 9.0 0.00 0.22 0.19 37 1006.1
20260507211927 61 297 5.0 9.0 0.00 0.22 0.19 37 1006.0
20260507210036 62 301 6.0 11.0 0.00 0.22 0.19 37 1005.9
20260507204037 63 21 1.0 11.0 0.00 0.22 0.19 36 1005.9
20260507202038 64 292 0.0 11.0 0.00 0.22 0.19 35 1005.8
20260507201927 64 292 0.0 11.0 0.00 0.22 0.19 35 1005.7
20260507200037 64 289 0.0 12.0 0.00 0.23 0.19 36 1005.9
20260507194037 65 110 0.0 12.0 0.00 0.23 0.19 34 1005.8
20260507192037 64 302 0.0 12.0 0.00 0.27 0.19 34 1006.2
20260507191927 64 36 0.0 12.0 0.00 0.27 0.19 34 1006.2
20260507190037 63 302 5.0 10.0 0.00 0.29 0.19 35 1006.4